Weather History for Warsaw, IN

Change the Weather History Date:

Wednesday, November 30, 2011

  Actual Average Record
Temperature  
Mean Temperature 30 °F -  
Max Temperature 33 °F 40 °F 62 °F (1962)
Min Temperature 26 °F 28 °F 2 °F (1958)
Degree Days  
Heating Degree Days 34    
Moisture  
Dew Point 27 °F    
Average Humidity 83    
Maximum Humidity 100    
Minimum Humidity 75    
Precipitation  
Precipitation 0.02 in - - ()
Sea Level Pressure  
Sea Level Pressure 30.00 in    
Wind  
Wind Speed 2 mph (WSW)    
Max Wind Speed 10 mph    
Max Gust Speed -    
Visibility 10 miles    
Events      
Averages and records for this station are not official NWS values.
T = Trace of Precipitation, MM = Missing Value Source: NWS Daily Summary

Daily Weather History Graph

Daily Weather History Graph

Search for Another Location

Airport:

Trip Planner

Search our weather history database for the weather conditions in past years. The results will help you decide how hot, cold, wet, or windy it might be!

Date:

Astronomy

Nov. 30, 2011 Rise Set
Actual Time 7:48 AM EST 5:15 PM EST
Civil Twilight 7:17 AM EST 5:46 PM EST
Nautical Twilight 6:43 AM EST 6:20 PM EST
Astronomical Twilight 6:10 AM EST 6:53 PM EST
Moon 12:04 PM EST (11/30) 11:14 PM EST (11/30)
Length of Visible Light 10h 28m
Length of Day
9h 27m
Waxing Crescent, 33% of the Moon is Illuminated
Nov 30
Waxing Crescent
Dec 2
First Quarter
Dec 10
Full
Dec 17
Last Quarter
Dec 24
New

Hourly Weather History & Observations

Time (EST) Temp. Windchill Dew Point Humidity Pressure Visibility Wind Dir Wind Speed Gust Speed Precip Events Conditions
12:15 AM 32.0 °F - 26.6 °F 80% 29.83 in 10.0 mi Calm Calm - N/A   Overcast
12:35 AM 30.2 °F - 24.8 °F 80% 29.83 in 10.0 mi Calm Calm - N/A   Scattered Clouds
12:55 AM 30.2 °F - 24.8 °F 80% 29.84 in 10.0 mi Calm Calm - 0.01 in   Clear
1:15 AM 30.2 °F - 24.8 °F 80% 29.83 in 10.0 mi Calm Calm - 0.01 in   Clear
1:35 AM 30.2 °F - 26.6 °F 86% 29.84 in 10.0 mi Calm Calm - 0.01 in   Scattered Clouds
1:55 AM 30.2 °F - 26.6 °F 86% 29.84 in 10.0 mi Calm Calm - 0.01 in   Scattered Clouds
2:15 AM 30.2 °F - 26.6 °F 86% 29.85 in 10.0 mi Calm Calm - N/A   Clear
2:35 AM 30.2 °F - 26.6 °F 86% 29.85 in 10.0 mi Calm Calm - N/A   Clear
2:55 AM 30.2 °F - 26.6 °F 86% 29.85 in 10.0 mi Calm Calm - N/A   Clear
3:15 AM 28.4 °F - 26.6 °F 93% 29.86 in 10.0 mi Calm Calm - N/A   Clear
3:55 AM - - - N/A% 29.86 in 10.0 mi Calm Calm - N/A   Scattered Clouds
4:15 AM - - - N/A% 29.87 in 10.0 mi Calm Calm - N/A   Overcast
4:35 AM 32.0 °F - 28.4 °F 87% 29.87 in 10.0 mi Calm Calm - N/A   Overcast
4:55 AM 32.0 °F - 28.4 °F 87% 29.88 in 10.0 mi Calm Calm - N/A   Overcast
5:15 AM 32.0 °F - 26.6 °F 80% 29.88 in 10.0 mi Calm Calm - N/A   Overcast
5:35 AM 32.0 °F - 26.6 °F 80% 29.89 in 10.0 mi Calm Calm - N/A   Overcast
5:55 AM 32.0 °F - 26.6 °F 80% 29.90 in 10.0 mi Calm Calm - N/A   Overcast
6:15 AM 32.0 °F - 28.4 °F 87% 29.92 in 10.0 mi Calm Calm - N/A   Overcast
6:35 AM 32.0 °F - 28.4 °F 87% 29.93 in 10.0 mi Calm Calm - N/A   Overcast
6:55 AM 32.0 °F - 28.4 °F 87% 29.93 in 10.0 mi Calm Calm - N/A   Overcast
7:15 AM 32.0 °F - 28.4 °F 87% 29.94 in 10.0 mi Calm Calm - N/A   Overcast
7:35 AM 32.0 °F - 28.4 °F 87% 29.95 in 10.0 mi Calm Calm - N/A   Overcast
8:15 AM 32.0 °F 28.7 °F 26.6 °F 80% 29.97 in 10.0 mi NW 3.5 mph - N/A   Overcast
8:35 AM 32.0 °F 28.7 °F 26.6 °F 80% 29.98 in 10.0 mi NW 3.5 mph - N/A   Overcast
8:55 AM 32.0 °F - 26.6 °F 80% 29.99 in 10.0 mi Calm Calm - N/A   Overcast
9:15 AM 32.0 °F - 26.6 °F 80% 30.00 in - Calm Calm - N/A   Unknown
9:35 AM 32.0 °F - 26.6 °F 80% 30.00 in 10.0 mi Calm Calm - N/A   Mostly Cloudy
9:55 AM 32.0 °F - 26.6 °F 80% 30.01 in 10.0 mi Calm Calm - N/A   Mostly Cloudy
10:15 AM 32.0 °F 27.5 °F 26.6 °F 80% 30.02 in - West 4.6 mph - N/A   Unknown
11:15 AM 32.0 °F 28.7 °F 28.4 °F 87% 30.04 in 10.0 mi West 3.5 mph - N/A   Clear
11:35 AM 33.8 °F 30.8 °F 28.4 °F 81% 30.05 in 10.0 mi West 3.5 mph - N/A   Scattered Clouds
11:55 AM 33.8 °F 30.8 °F 28.4 °F 81% 30.05 in 10.0 mi West 3.5 mph - N/A   Mostly Cloudy
12:15 PM 33.8 °F 28.6 °F 28.4 °F 81% 30.04 in 10.0 mi West 5.8 mph - N/A   Scattered Clouds
12:35 PM 33.8 °F 26.4 °F 28.4 °F 81% 30.04 in 10.0 mi WSW 9.2 mph - N/A   Scattered Clouds
12:55 PM 33.8 °F 27.7 °F 28.4 °F 81% 30.05 in 10.0 mi WSW 6.9 mph - N/A   Scattered Clouds
1:15 PM 33.8 °F 27.0 °F 28.4 °F 81% 30.05 in 10.0 mi WSW 8.1 mph - N/A   Clear
1:35 PM 33.8 °F 27.7 °F 28.4 °F 81% 30.05 in 10.0 mi SW 6.9 mph - N/A   Clear
1:55 PM 33.8 °F 29.6 °F 28.4 °F 81% 30.05 in 10.0 mi SW 4.6 mph - N/A   Clear
2:15 PM 33.8 °F 27.7 °F 28.4 °F 81% 30.05 in 10.0 mi WSW 6.9 mph - N/A   Clear
2:35 PM 33.8 °F 27.0 °F 28.4 °F 81% 30.06 in 10.0 mi WSW 8.1 mph - N/A   Clear
2:55 PM 33.8 °F 27.7 °F 28.4 °F 81% 30.06 in 10.0 mi WSW 6.9 mph - N/A   Clear
3:15 PM 33.8 °F 25.8 °F 28.4 °F 81% 30.06 in 10.0 mi WSW 10.4 mph - N/A   Clear
3:35 PM 33.8 °F 27.0 °F 26.6 °F 75% 30.07 in 10.0 mi WSW 8.1 mph - N/A   Clear
3:55 PM 33.8 °F 27.7 °F 28.4 °F 81% 30.07 in 10.0 mi SW 6.9 mph - N/A   Clear
4:15 PM 33.8 °F 30.8 °F 28.4 °F 81% 30.08 in 10.0 mi SW 3.5 mph - N/A   Clear
4:35 PM 33.8 °F 27.7 °F 28.4 °F 81% 30.09 in 10.0 mi WSW 6.9 mph - N/A   Clear
4:55 PM 32.0 °F 24.8 °F 26.6 °F 80% 30.09 in 10.0 mi SW 8.1 mph - N/A   Clear
5:15 PM 32.0 °F 26.4 °F 26.6 °F 80% 30.10 in 10.0 mi WSW 5.8 mph - N/A   Clear
5:35 PM 32.0 °F 27.5 °F 26.6 °F 80% 30.11 in 10.0 mi WSW 4.6 mph - N/A   Clear
5:55 PM 32.0 °F 25.6 °F 26.6 °F 80% 30.12 in 10.0 mi WSW 6.9 mph - N/A   Clear
6:15 PM 30.2 °F - 26.6 °F 86% 30.12 in 10.0 mi Calm Calm - N/A   Clear
6:35 PM 30.2 °F 26.7 °F 26.6 °F 86% 30.13 in 10.0 mi SW 3.5 mph - N/A   Clear
6:55 PM 30.2 °F - 26.6 °F 86% 30.14 in 10.0 mi Calm Calm - N/A   Clear
7:15 PM 28.4 °F 24.6 °F 26.6 °F 93% 30.14 in 10.0 mi SW 3.5 mph - N/A   Clear
7:35 PM 30.2 °F - 26.6 °F 86% 30.14 in 10.0 mi Calm Calm - N/A   Clear
7:55 PM 28.4 °F - 26.6 °F 93% 30.14 in 10.0 mi Calm Calm - N/A   Clear
8:15 PM 28.4 °F - 28.4 °F 100% 30.14 in 10.0 mi Calm Calm - N/A   Clear
8:35 PM 28.4 °F - 24.8 °F 86% 30.15 in 10.0 mi Calm Calm - N/A   Clear
8:55 PM 28.4 °F - 24.8 °F 86% 30.15 in 10.0 mi Calm Calm - N/A   Clear
9:15 PM 28.4 °F - 23.0 °F 80% 30.15 in 10.0 mi Calm Calm - N/A   Clear
9:35 PM 26.6 °F 22.6 °F 23.0 °F 86% 30.16 in 10.0 mi South 3.5 mph - N/A   Clear
10:15 PM 26.6 °F - 26.6 °F 100% 30.16 in 10.0 mi Calm Calm - N/A   Clear
10:35 PM - - - N/A% 30.17 in 10.0 mi Calm Calm - N/A   Clear
10:55 PM - - - N/A% 30.17 in 10.0 mi South 3.5 mph - N/A   Clear
11:15 PM - - - N/A% 30.18 in 10.0 mi Calm Calm - N/A   Clear
11:35 PM - - - N/A% 30.18 in 10.0 mi Calm Calm - N/A   Clear
11:55 PM - - - N/A% 30.18 in 10.0 mi Calm Calm - N/A   Clear